Terug naar catalogus

CZ-4 DEB

ActiefSSO
NORAD 26132·DEBRIS·🇨🇳 China

Gelanceerd Oct 14, 1999 vanaf Taiyuan Satellite Launch Center

Loading…

Volgende Passages (komende 24 uur)

TLE

VersSource: Space-Track

Epoch: Sep 14, 2026, 05:01 UTC

1 26132U 99057U   26257.20912675  .00002866  00000-0  60880-3 0  9995
2 26132  98.6412 354.9599 0098981   5.3655  24.2889 14.56917527380864

Volg CZ-4 DEB in realtime met AllMySat

Download on the App Store